Location: DaltonSkyGazer Observatory
(42.4858°N, 73.1565°W)
Time: 22:05:30
(UTC-04:00)

Helios 1B - Visible Passes

Search period start: 27 April 2015 00:00
Search period end: 07 May 2015 00:00
Orbit: 624 x 625 km, 98.1° (Epoch: 27 April)

Date Brightness Start Highest point End Pass type
(mag) Time Alt. Az. Time Alt. Az. Time Alt. Az.
27 Apr 6.7 22:33:34 17° NE 22:33:34 17° NE 22:35:39 10° NNE visible
28 Apr 6.6 00:10:49 25° NW 00:10:49 25° NW 00:12:49 10° NNW visible
28 Apr 6.3 22:52:28 23° NE 22:52:28 23° NE 22:55:00 10° N visible
29 Apr 6.9 00:29:43 19° NW 00:29:43 19° NW 00:31:17 10° NW visible
29 Apr 6.0 23:11:22 31° NNE 23:11:22 31° NNE 23:14:06 10° N visible
30 Apr 7.2 00:48:37 13° WNW 00:48:37 13° WNW 00:49:28 10° NW visible
30 Apr 5.9 23:30:16 37° N 23:30:16 37° N 23:33:01 10° N visible
01 May 7.0 22:11:54 11° ENE 22:11:54 11° ENE 22:13:00 10° NE visible
01 May 6.0 23:49:09 37° NNW 23:49:09 37° NNW 23:51:49 10° NNW visible
02 May 6.6 22:30:47 16° ENE 22:30:47 16° ENE 22:33:10 10° NNE visible
03 May 6.3 00:08:03 30° NW 00:08:03 30° NW 00:10:29 10° NNW visible
03 May 6.2 22:49:40 23° NE 22:49:40 23° NE 22:52:33 10° NNE visible
04 May 6.6 00:26:56 22° NW 00:26:56 22° NW 00:28:58 10° NNW visible
04 May 5.8 23:08:34 33° NE 23:08:34 33° NE 23:11:40 10° N visible
05 May 7.0 00:45:49 16° WNW 00:45:49 16° WNW 00:47:12 10° NW visible
05 May 5.5 23:27:27 43° NNE 23:27:27 43° NNE 23:30:37 10° N visible
06 May 7.3 01:04:42 10° WNW 01:04:42 10° WNW 01:04:52 10° WNW visible
06 May 7.0 22:09:22 10° ENE 22:09:26 10° ENE 22:09:45 10° ENE visible
06 May 5.6 23:46:20 45° NNW 23:46:20 45° NNW 23:49:24 10° NNW visible
